Location: Bottens
(46.6171°N, 6.6605°E)
Time: 01:40:47
(UTC+00:00)

SL-16 R/B - Pass Details

Date: 20 June 2021
Orbit: 985 x 1007 km, 99.5° (Epoch: 04 August)

Event Time Altitude Azimuth Distance (km) Brightness Sun altitude
Exits shadow 00:59:50 15° 156° (SSE) 2,427 4.2 -17.4°
Maximum altitude 01:05:09 78° 72° (ENE) 1,019 2.6 -17.0°
Drops below altitude 10° 01:11:20 10° 347° (NNW) 2,759 5.7 -16.6°
Sets 01:13:49 0° 346° (NNW) 3,710 6.4 -16.5°
